Asheville, NC

4:05 PM EST on December 12, 2019 (GMT -0500)
Asheville Regional

Weather History for KAVL - September, 2019

Change the Weather History Date:

Tuesday, September 3, 2019

  Actual Average Record
Temperature  
Mean Temperature 76 °F 70 °F  
Max Temperature 90 °F 81 °F 90 °F (1975)
Min Temperature 61 °F 60 °F 44 °F (1967)
Degree Days  
Heating Degree Days 0 0  
Month to date heating degree days 0 0  
Since 1 July heating degree days 0 2  
Cooling Degree Days 11 6  
Month to date cooling degree days 24 18  
Year to date cooling degree days 1030 775  
Growing Degree Days 26 (Base 50)    
Moisture  
Dew Point 62 °F    
Average Humidity 65    
Maximum Humidity 93    
Minimum Humidity 36    
Precipitation  
Precipitation 0.00 in 0.14 in 2.80 in (1938)
Month to date precipitation 0.00 0.41  
Year to date precipitation 41.71 32.02  
Snow  
Snow 0.00 in 0.00 in 0.00 in ()
Month to date snowfall 0.0 0.0  
Since 1 July snowfall 0.0 0.0  
Since 1 September snowfall 0.0 0.0  
Snow Depth 0.00 in    
Sea Level Pressure  
Sea Level Pressure 30.03 in    
Wind  
Wind Speed 2 mph (WNW)    
Max Wind Speed 13 mph    
Max Gust Speed 16 mph    
Visibility 10 miles    
Events      
T = Trace of Precipitation, MM = Missing Value Source: NWS Daily Summary

Daily Weather History Graph

Daily Weather History Graph

Search for Another Location

Airport or City:

Astronomy

Sep. 03, 2019 Rise Set
Actual Time 7:03 AM EDT 7:54 PM EDT
Civil Twilight 6:37 AM EDT 8:20 PM EDT
Nautical Twilight 6:07 AM EDT 8:51 PM EDT
Astronomical Twilight 5:35 AM EDT 9:22 PM EDT
Moon 11:45 AM EDT (9/3) 11:01 PM EDT (9/3)
Length of Visible Light 13h 42m
Length of Day
12h 50m
Waxing Crescent, 24% of the Moon is Illuminated
Sep 3
Waxing Crescent
Sep 5
First Quarter
Sep 14
Full
Sep 21
Last Quarter
Sep 28
New

Hourly Weather History & Observations

Time (EDT) Temp. Heat Index Dew Point Humidity Pressure Visibility Wind Dir Wind Speed Gust Speed Precip Events Conditions
12:54 AM 66.0 °F - 62.1 °F 87% 30.04 in 10.0 mi NNW 3.5 mph - N/A   Clear
1:54 AM 64.9 °F - 61.0 °F 87% 30.04 in 10.0 mi Calm Calm - N/A   Clear
2:54 AM 63.0 °F - 60.1 °F 90% 30.03 in 10.0 mi Calm Calm - N/A   Clear
3:54 AM 64.0 °F - 60.1 °F 87% 30.01 in 10.0 mi NW 3.5 mph - N/A   Clear
4:54 AM 63.0 °F - 60.1 °F 90% 30.01 in 10.0 mi Calm Calm - N/A   Clear
5:54 AM 63.0 °F - 60.1 °F 90% 30.03 in 10.0 mi Calm Calm - N/A   Clear
6:54 AM 62.1 °F - 59.0 °F 90% 30.05 in 10.0 mi Calm Calm - N/A   Clear
7:54 AM 64.0 °F - 60.1 °F 87% 30.07 in 10.0 mi Calm Calm - N/A   Clear
8:54 AM 68.0 °F - 62.1 °F 81% 30.08 in 10.0 mi North 4.6 mph - N/A   Clear
9:54 AM 73.9 °F - 63.0 °F 68% 30.08 in 10.0 mi NW 4.6 mph - N/A   Clear
10:54 AM 78.1 °F - 64.0 °F 62% 30.06 in 10.0 mi NW 4.6 mph - N/A   Clear
11:54 AM 80.1 °F 81.7 °F 64.0 °F 58% 30.06 in 10.0 mi West 3.5 mph - N/A   Clear
12:54 PM 82.9 °F 83.7 °F 62.1 °F 49% 30.04 in 10.0 mi Variable 3.5 mph - N/A   Clear
1:54 PM 84.9 °F 85.4 °F 62.1 °F 46% 30.03 in 10.0 mi Variable 4.6 mph - N/A   Partly Cloudy
2:54 PM 84.0 °F 84.0 °F 60.1 °F 44% 30.02 in 10.0 mi Calm Calm - N/A   Mostly Cloudy
3:54 PM 88.0 °F 86.9 °F 57.9 °F 36% 29.99 in 10.0 mi Calm Calm - N/A   Partly Cloudy
4:54 PM 84.9 °F 85.4 °F 62.1 °F 46% 29.99 in 10.0 mi SE 8.1 mph - N/A   Scattered Clouds
5:54 PM 84.9 °F 85.9 °F 63.0 °F 48% 29.99 in 10.0 mi Variable 5.8 mph - N/A   Partly Cloudy
6:54 PM 84.0 °F 84.9 °F 63.0 °F 49% 30.00 in 10.0 mi SE 5.8 mph - N/A   Clear
7:54 PM 81.0 °F 82.2 °F 63.0 °F 54% 30.01 in 10.0 mi Calm Calm - N/A   Clear
8:54 PM 75.0 °F - 66.0 °F 73% 30.02 in 10.0 mi Calm Calm - 0.00 in   Clear
9:54 PM 73.0 °F - 66.0 °F 79% 30.04 in 10.0 mi Calm Calm - N/A   Scattered Clouds
10:54 PM 72.0 °F - 64.9 °F 78% 30.04 in 10.0 mi South 3.5 mph - N/A   Mostly Cloudy
11:54 PM 70.0 °F - 64.9 °F 84% 30.03 in 10.0 mi Calm Calm - N/A   Clear